KC7NGC-B Weather Reports


time (UTC)temp
F
wind
direction
speed
knots
gust
knots
rain 1hr
in
rain 24hr
in
rain mn
in
humidity
%
barometer
mb
20260903123629 53 217 6.1 11.3 0.00 0.02 0.00 1 1011.8
20260903122625 54 194 4.3 5.2 0.00 0.02 0.00 1 1011.8
20260903121622 54 219 4.3 7.0 0.00 0.02 0.00 1 1011.9
20260903120617 54 215 6.1 8.7 0.00 0.02 0.00 1 1011.9
20260903115634 54 204 2.6 3.5 0.00 0.02 0.00 1 1011.8
20260903114630 54 211 4.3 7.0 0.00 0.02 0.00 1 1011.9
20260903113626 54 177 2.6 4.3 0.00 0.02 0.00 1 1011.8
20260903112623 55 187 3.5 5.2 0.00 0.02 0.00 1 1011.9
20260903111640 55 224 6.1 7.8 0.00 0.02 0.00 1 1011.8
20260903110702 55 188 5.2 9.6 0.00 0.02 0.00 1 1011.3
20260903105632 56 179 4.3 6.1 0.00 0.02 0.00 1 1011.4
20260903104629 56 218 5.2 9.6 0.00 0.02 0.00 1 1011.1
20260903103625 56 197 3.5 5.2 0.00 0.02 0.00 1 1011.0
20260903102620 56 160 3.5 4.3 0.00 0.02 0.00 1 1011.1
20260903101617 56 186 4.3 6.1 0.00 0.02 0.00 1 1011.2
20260903100633 56 178 5.2 8.7 0.00 0.02 0.00 1 1011.2
20260903095650 56 206 6.1 9.6 0.00 0.02 0.00 1 1011.2
20260903094625 56 218 3.5 4.3 0.00 0.02 0.00 1 1011.2
20260903093622 57 207 4.3 6.1 0.00 0.02 0.00 1 1011.1
20260903092618 57 205 8.7 9.6 0.00 0.02 0.00 1 1011.1
20260903091634 57 202 6.1 8.7 0.00 0.02 0.00 1 1010.8
20260903090630 57 192 3.5 7.0 0.00 0.02 0.00 1 1010.9
20260903085626 57 206 6.1 7.8 0.00 0.02 0.00 1 1010.8
20260903084623 57 212 6.1 9.6 0.00 0.02 0.00 1 1010.7
20260903083619 57 183 5.2 7.0 0.00 0.02 0.00 1 1010.9
20260903082634 57 211 7.0 9.6 0.00 0.02 0.00 1 1010.7
20260903081651 57 199 6.1 10.4 0.00 0.02 0.00 1 1010.4
20260903080627 57 185 4.3 6.1 0.00 0.02 0.00 1 1010.4
20260903075724 57 215 5.2 8.7 0.00 0.02 0.00 1 1010.1
20260903074620 57 209 5.2 8.7 0.00 0.02 0.00 1 1010.2
20260903073616 57 205 6.1 9.6 0.00 0.02 0.00 1 1010.2
20260903072633 57 188 5.2 7.0 0.00 0.02 0.00 1 1010.1
20260903071650 57 202 6.1 11.3 0.00 0.02 0.00 1 1010.2
20260903070626 57 192 6.1 11.3 0.01 0.02 0.00 1 1010.0
20260903065622 57 199 6.1 7.8 0.01 0.02 0.02 1 1009.9
20260903064618 57 197 7.0 9.6 0.01 0.02 0.02 1 1009.9
20260903063635 57 217 5.2 8.7 0.01 0.02 0.02 1 1009.9
20260903062631 57 197 6.1 9.6 0.01 0.01 0.01 1 1010.0
20260903061627 57 192 7.8 10.4 0.01 0.01 0.01 1 1009.9
20260903060623 57 205 7.0 12.2 0.00 0.01 0.01 1 1009.8
20260903055619 58 191 9.6 13.9 0.00 0.01 0.01 1 1009.8
20260903054635 58 194 5.2 9.6 0.00 0.01 0.01 1 1010.0
20260903053631 59 207 11.3 17.4 0.00 0.00 0.00 1 1010.0
20260903052627 59 191 5.2 10.4 0.00 0.00 0.00 1 1010.1
20260903051624 59 202 8.7 10.4 0.00 0.00 0.00 1 1009.9
20260903050620 59 202 8.7 11.3 0.00 0.00 0.00 1 1010.0
20260903045616 60 208 6.1 11.3 0.00 0.00 0.00 1 1009.8
20260903044632 60 215 6.1 10.4 0.00 0.00 0.00 1 1009.7
20260903043628 60 198 7.8 12.2 0.00 0.00 0.00 1 1009.6
20260903042625 60 198 5.2 14.8 0.00 0.00 0.00 1 1009.7
20260903041701 60 208 7.0 16.5 0.00 0.00 0.00 1 1009.6
20260903040616 60 190 5.2 10.4 0.00 0.00 0.00 1 1009.6
20260903035653 60 195 6.1 13.0 0.00 0.00 0.00 1 1009.6
20260903034629 60 199 7.0 9.6 0.00 0.00 0.00 1 1009.5
20260903033625 60 200 7.8 10.4 0.00 0.00 0.00 1 1009.5
20260903032621 60 196 7.0 10.4 0.00 0.00 0.00 1 1009.6
20260903031617 60 202 6.1 9.6 0.00 0.00 0.00 1 1009.3
20260903030633 61 199 4.3 7.8 0.00 0.00 0.00 1 1009.3
20260903025629 61 196 4.3 8.7 0.00 0.00 0.00 1 1009.1
20260903024645 61 198 5.2 7.8 0.00 0.00 0.00 1 1009.2
20260903023622 61 204 7.0 8.7 0.00 0.00 0.00 1 1009.4
20260903022618 61 188 7.0 13.0 0.00 0.00 0.00 1 1009.4
20260903021654 61 201 8.7 12.2 0.00 0.00 0.00 1 1009.2
20260903020631 61 205 7.0 10.4 0.00 0.00 0.00 1 1009.2
20260903015627 62 217 5.2 10.4 0.00 0.00 0.00 1 1009.4
20260903014623 62 199 7.8 13.0 0.00 0.00 0.00 1 1009.5
20260903013619 63 217 6.1 10.4 0.00 0.00 0.00 1 1009.2
20260903012656 63 217 10.4 14.8 0.00 0.00 0.00 1 1009.4
20260903011632 63 221 7.8 13.9 0.00 0.00 0.00 1 1009.4
20260903010628 64 212 8.7 13.9 0.00 0.00 0.00 1 1009.3
20260903005624 64 222 5.2 8.7 0.00 0.00 0.00 1 1009.1
20260903004620 65 218 5.2 13.9 0.00 0.00 0.00 1 1009.1
20260903003619 65 219 10.4 14.8 0.00 0.00 0.00 1 1009.1
20260903002632 65 216 7.0 12.2 0.00 0.00 0.00 1 1009.1
20260903001628 64 223 7.8 17.4 0.00 0.00 0.00 1 1009.0
20260903000624 64 215 8.7 12.2 0.00 0.00 0.00 1 1009.1
20260902235621 64 205 7.8 11.3 0.00 0.00 0.00 1 1009.1
20260902234617 65 210 7.0 12.2 0.00 0.00 0.00 1 1008.9
20260902233654 67 215 7.8 13.9 0.00 0.00 0.00 1 1008.7
20260902232629 67 214 9.6 17.4 0.00 0.00 0.00 1 1008.9
20260902231646 67 210 10.4 13.9 0.00 0.00 0.00 1 1009.2
20260902230621 66 224 5.2 9.6 0.00 0.00 0.00 1 1009.3
20260902225618 64 204 5.2 7.8 0.00 0.00 0.00 1 1009.2
20260902224634 63 205 5.2 8.7 0.00 0.00 0.00 1 1009.3
20260902223650 64 211 7.8 10.4 0.00 0.00 0.00 1 1009.2
20260902222626 66 237 7.8 18.2 0.00 0.00 0.00 1 1009.2
20260902221623 71 216 5.2 8.7 0.00 0.00 0.00 1 1008.7
20260902220638 74 186 7.8 10.4 0.00 0.00 0.00 1 1008.0
20260902215634 73 189 3.5 5.2 0.00 0.00 0.00 1 1008.0
20260902214631 72 183 3.5 4.3 0.00 0.00 0.00 1 1008.0
20260902213627 72 180 6.1 9.6 0.00 0.00 0.00 1 1008.1
20260902212703 73 177 5.2 7.0 0.00 0.00 0.00 1 1008.1
20260902211639 74 179 4.3 5.2 0.00 0.00 0.00 1 1008.2
20260902210635 74 172 3.5 5.2 0.00 0.00 0.00 1 1008.2
20260902205632 74 216 4.3 6.1 0.00 0.00 0.00 1 1008.1
20260902204628 73 219 3.5 5.2 0.00 0.00 0.00 1 1008.2
20260902203625 73 177 1.7 3.5 0.00 0.00 0.00 1 1008.3
20260902202621 73 201 4.3 6.1 0.00 0.00 0.00 1 1008.5
20260902201617 73 215 1.7 4.3 0.00 0.00 0.00 1 1008.6
20260902200634 73 176 4.3 7.0 0.00 0.00 0.00 1 1008.7
20260902195629 72 253 3.5 5.2 0.00 0.00 0.00 1 1008.9
20260902194707 72 266 4.3 5.2 0.00 0.00 0.00 1 1009.0
20260902193622 72 205 5.2 9.6 0.00 0.00 0.00 1 1009.1
20260902192639 72 219 5.2 7.0 0.00 0.00 0.00 1 1009.2
20260902191635 72 183 2.6 6.1 0.00 0.00 0.00 1 1009.4
20260902190631 71 211 5.2 9.6 0.00 0.00 0.00 1 1009.3
20260902185630 71 207 2.6 3.5 0.00 0.00 0.00 1 1009.7
20260902184624 70 213 3.5 6.1 0.00 0.00 0.00 1 1009.5
20260902183619 70 182 6.1 9.6 0.00 0.00 0.00 1 1009.9
20260902182616 70 209 7.0 12.2 0.00 0.00 0.00 1 1009.9
20260902181632 70 182 7.0 8.7 0.00 0.00 0.00 1 1009.8
20260902180629 70 211 2.6 5.2 0.00 0.00 0.00 1 1009.9
20260902175645 70 185 3.5 7.0 0.00 0.00 0.00 1 1009.9
20260902174641 69 207 5.2 7.8 0.00 0.00 0.00 1 1010.1
20260902173618 68 182 5.2 7.0 0.00 0.00 0.00 1 1009.9
20260902172634 67 200 3.5 5.2 0.00 0.00 0.00 1 1010.1
20260902171630 66 194 5.2 8.7 0.00 0.00 0.00 1 1010.1
20260902170626 66 208 4.3 5.2 0.00 0.00 0.00 1 1010.0
20260902165623 67 192 7.0 8.7 0.00 0.00 0.00 1 1010.2
20260902164619 67 201 5.2 9.6 0.00 0.00 0.00 1 1010.1
20260902163620 66 175 6.1 10.4 0.00 0.00 0.00 1 1010.1
20260902162632 65 197 4.3 6.1 0.00 0.00 0.00 1 1009.9
20260902161628 64 192 6.1 9.6 0.00 0.00 0.00 1 1010.1
20260902160625 64 196 3.5 6.1 0.00 0.00 0.00 1 1010.2
20260902155621 63 191 6.1 10.4 0.00 0.00 0.00 1 1010.2
20260902154617 61 196 6.1 7.8 0.00 0.00 0.00 1 1010.3
20260902153654 60 208 3.5 5.2 0.00 0.00 0.00 1 1010.4
20260902152630 59 207 3.5 4.3 0.00 0.00 0.00 1 1010.3
20260902151626 59 200 5.2 7.8 0.00 0.00 0.00 1 1010.5
20260902150622 59 198 4.3 7.0 0.00 0.00 0.00 1 1010.4
20260902145619 59 212 3.5 5.2 0.00 0.00 0.00 1 1010.4
20260902144635 57 215 6.1 9.6 0.00 0.00 0.00 1 1010.4
20260902143651 57 245 2.6 6.1 0.00 0.00 0.00 1 1010.7
20260902142627 57 305 4.3 6.1 0.00 0.00 0.00 1 1010.6
20260902141623 58 282 2.6 6.1 0.00 0.00 0.00 1 1010.2
20260902140620 58 260 3.5 5.2 0.00 0.00 0.00 1 1010.3
20260902135617 58 300 0.9 3.5 0.00 0.00 0.00 1 1010.1
20260902134633 58 322 0.9 2.6 0.00 0.00 0.00 1 1010.1
20260902133710 58 202 7.0 10.4 0.00 0.00 0.00 1 1009.8
20260902132626 58 213 7.0 11.3 0.00 0.00 0.00 1 1009.6
20260902131622 58 205 6.1 11.3 0.00 0.00 0.00 1 1009.4
20260902130618 58 212 6.1 9.6 0.00 0.00 0.00 1 1009.3
20260902125654 58 215 7.8 11.3 0.00 0.00 0.00 1 1009.7
20260902124650 59 208 6.1 10.4 0.00 0.00 0.00 1 1009.6